Parsons, KS

6:34 PM CDT on April 30, 2017 (GMT -0500)
Tri-City

Weather History for KPPF - May, 2013

Change the Weather History Date:

Saturday, May 25, 2013

  Actual Average Record
Temperature  
Mean Temperature 72 °F -  
Max Temperature 82 °F 79 °F 93 °F (1964)
Min Temperature 63 °F 58 °F 44 °F (2001)
Cooling Degree Days 8    
Growing Degree Days 22 (Base 50)    
Moisture  
Dew Point 61 °F    
Average Humidity 69    
Maximum Humidity 84    
Minimum Humidity 56    
Precipitation  
Precipitation 0.00 in - - ()
Sea Level Pressure  
Sea Level Pressure 30.11 in    
Wind  
Wind Speed 7 mph (South)    
Max Wind Speed 14 mph    
Max Gust Speed 21 mph    
Visibility 10 miles    
Events      
Averages and records for this station are not official NWS values.
T = Trace of Precipitation, MM = Missing Value Source: NWS Daily Summary

Daily Weather History Graph

Daily Weather History Graph

Search for Another Location

Airport or City:

Trip Planner

Search our weather history database for the weather conditions in past years. The results will help you decide how hot, cold, wet, or windy it might be!

Date:

Astronomy

May. 25, 2013 Rise Set
Actual Time 6:06 AM CDT 8:32 PM CDT
Civil Twilight 5:36 AM CDT 9:02 PM CDT
Nautical Twilight 4:59 AM CDT 9:39 PM CDT
Astronomical Twilight 4:18 AM CDT 10:20 PM CDT
Moon 9:21 PM CDT (5/25) 6:33 AM CDT (5/25)
Length of Visible Light 15h 26m
Length of Day
14h 26m
Full, 100% of the Moon is Illuminated
May 25
Full
May 31
Last Quarter
Jun 8
New
Jun 16
First Quarter
Jun 23
Full

Hourly Weather History & Observations

Time (CDT) Temp. Heat Index Dew Point Humidity Pressure Visibility Wind Dir Wind Speed Gust Speed Precip Events Conditions
12:52 AM 66.0 °F - 59.0 °F 78% 30.15 in 10.0 mi SSE 4.6 mph - N/A   Partly Cloudy
1:52 AM 66.0 °F - 57.9 °F 75% 30.14 in 10.0 mi South 5.8 mph - N/A   Scattered Clouds
2:52 AM 64.9 °F - 57.0 °F 75% 30.13 in 10.0 mi SSE 5.8 mph - N/A   Scattered Clouds
3:52 AM 66.0 °F - 55.0 °F 68% 30.14 in 10.0 mi South 6.9 mph - N/A   Overcast
4:15 AM 64.4 °F - 55.4 °F 73% 30.17 in 10.0 mi South 6.9 mph - N/A   Mostly Cloudy
4:52 AM 64.9 °F - 55.0 °F 70% 30.17 in 10.0 mi SSE 4.6 mph - N/A   Overcast
5:00 AM 64.4 °F - 55.4 °F 73% 30.18 in 10.0 mi SE 3.5 mph - N/A   Overcast
5:52 AM 63.0 °F - 55.0 °F 75% 30.17 in 10.0 mi Calm Calm - N/A   Clear
6:52 AM 63.0 °F - 55.0 °F 75% 30.18 in 10.0 mi SSE 4.6 mph - N/A   Overcast
7:52 AM 64.9 °F - 55.0 °F 70% 30.17 in 10.0 mi South 9.2 mph - N/A   Clear
8:52 AM 68.0 °F - 57.0 °F 68% 30.16 in 10.0 mi South 6.9 mph 16.1 mph N/A   Clear
9:52 AM 71.1 °F - 59.0 °F 66% 30.15 in 10.0 mi South 13.8 mph 18.4 mph N/A   Clear
10:52 AM 75.0 °F - 62.1 °F 64% 30.14 in 10.0 mi South 9.2 mph 16.1 mph N/A   Clear
11:52 AM 75.9 °F - 63.0 °F 64% 30.15 in 10.0 mi South 9.2 mph 17.3 mph N/A   Clear
12:52 PM 79.0 °F - 64.0 °F 60% 30.14 in 10.0 mi SSW 12.7 mph 20.7 mph N/A   Clear
1:52 PM 79.0 °F - 64.0 °F 60% 30.14 in 10.0 mi South 10.4 mph 20.7 mph N/A   Clear
2:52 PM 82.0 °F 83.8 °F 64.9 °F 56% 30.10 in 10.0 mi South 9.2 mph - N/A   Clear
3:52 PM 81.0 °F 83.0 °F 66.0 °F 60% 30.09 in 10.0 mi South 8.1 mph - N/A   Scattered Clouds
4:52 PM 81.0 °F 83.0 °F 66.0 °F 60% 30.08 in 10.0 mi South 6.9 mph 18.4 mph N/A   Partly Cloudy
5:52 PM 81.0 °F 82.7 °F 64.9 °F 58% 30.04 in 10.0 mi South 11.5 mph 17.3 mph N/A   Clear
6:52 PM 80.1 °F 82.1 °F 66.0 °F 62% 30.01 in 10.0 mi SSE 9.2 mph - N/A   Clear
7:52 PM 77.0 °F - 66.0 °F 69% 30.01 in 10.0 mi SSE 5.8 mph - N/A   Clear
8:52 PM 75.0 °F - 66.0 °F 73% 30.01 in 10.0 mi North - - N/A   Clear
9:52 PM 73.9 °F - 64.9 °F 73% 30.02 in 10.0 mi South 5.8 mph - N/A   Clear
10:52 PM 71.1 °F - 64.9 °F 81% 30.06 in 10.0 mi SSE 4.6 mph - N/A   Clear
11:52 PM 70.0 °F - 64.9 °F 84% 30.07 in 10.0 mi North - - N/A   Clear